Location: Arroyo Grande
(40.2671°N, 4.2512°W)
Time: 05:35:27
(UTC+00:00)

PSLV R/B - Pass Details

Date: 03 February 2023
Orbit: 491 x 557 km, 97.8° (Epoch: 25 March)

Event Time Altitude Azimuth Distance (km) Brightness Sun altitude
Rises 19:10:56 0° 172° (S) 2,556 7.2 -18.1°
Reaches altitude 10° 19:12:59 10° 175° (S) 1,683 6.3 -18.5°
Maximum altitude 19:16:35 66° 258° (WSW) 545 3.9 -19.1°
Drops below altitude 10° 19:20:15 10° 342° (NNW) 1,721 6.5 -19.8°
Sets 19:22:23 0° 345° (NNW) 2,622 7.4 -20.2°
